[[{"header":{"parameterUnit":"m.s-1","parameterCategory":1,"la1":30.2991,"la2":30.254,"lo1":-89.0895,"lo2":-89.0444,"dx":0.0017,"dy":0.0017,"nx":28,"ny":28,"refTime":"2022-12-03T09:00:00:Z","depth":0,"parameterNumber":2,"parameterNumberName":"U-component_of_WINDS"},"data":[0,0,0,0,0,0,0,0,0,0,0,0,0,0,0,0,0,0,0,0,0,0,0,0,0,0,0,0,0,0,0,0,0,0,0,0,0,0,0,0,0,0,0,0,0,0,0,0,0,0,0,0,0,0,0,0,0,0,0.0754,0.0755,0,0.0837,0.0838,0.0839,0.0837,0.0836,0.0835,0.0834,0.0922,0.0925,0.0928,0,0,0,0,0,0,0,0,0,0,0,0,0,0.0596,0.0599,0.0754,0.0755,0.0756,0.0837,0.0838,0.084,0.0838,0.0836,0.0835,0.0833,0.092,0.0924,0.0929,0,0,0,0,0,0,0,0,0,0,0,0,0,0.0671,0.06,0.0754,0.0765,0.0767,0.0837,0.0838,0.084,0.0838,0.0836,0.0834,0.0833,0.0919,0.0924,0.0929,0.0995,0,0,0.0945,0.0947,0,0,0,0,0,0,0,0,0.0667,0.0677,0.0762,0.0764,0.0767,0.0825,0.0815,0.0892,0.0838,0.0811,0.0834,0.0832,0.0891,0.0898,0.0918,0.0999,0.1002,0.0945,0.0948,0.095,0.0952,0,0,0,0,0,0,0,0.0661,0.0673,0.0787,0.0764,0.0766,0.0767,0.0775,0.0829,0.086,0.0813,0.0813,0.0823,0.0892,0.0913,0.092,0.1004,0.0945,0.0949,0.0953,0.0955,0.1143,0.1145,0,0,0,0,0,0,0.0654,0.0669,0.0785,0.079,0.0711,0.0771,0.0781,0.0808,0.0859,0.0865,0.0824,0.0823,0.0905,0.0914,0.0923,0.1003,0.095,0.0955,0.0958,0.1141,0.1143,0.1145,0,0,0,0,0,0,0.065,0.0664,0.0781,0.0729,0.0744,0.0775,0.0806,0.0811,0.0832,0.0867,0.0873,0.084,0.0904,0.0916,0.0977,0.1006,0.0957,0.0962,0.1138,0.1141,0.1144,0.1164,0,0,0,0,0,0,0.0646,0.0663,0.0688,0.073,0.0747,0.0833,0.0808,0.0814,0.084,0.0839,0.0884,0.089,0.0904,0.0969,0.0982,0.1012,0.0966,0.1136,0.114,0.1143,0.1161,0.1168,0.1173,0,0,0,0,0,0.064,0.0691,0.0689,0.0703,0.0779,0.0835,0.0845,0.0859,0.0842,0.0868,0.0891,0.0888,0.1001,0.0975,0.099,0.1022,0.1134,0.1139,0.1143,0.1159,0.1166,0.1173,0,0,0,0,0,0,0.0652,0.0696,0.0695,0.076,0.0794,0.0834,0.0867,0.0867,0.0907,0.0904,0.092,0.0931,0.0992,0.1013,0.0984,0.1088,0.1065,0.1073,0.1072,0.108,0.1086,0.108,0.097,0,0,0,0,0,0.0662,0.0703,0.074,0.0794,0.0811,0.0836,0.0861,0.0869,0.0905,0.0919,0.0947,0.0982,0.1025,0.1054,0.1096,0.1164,0.1174,0.1193,0.1199,0.1204,0.121,0.1248,0.1258,0.116,0.116,0.1159,0,0,0.0684,0.0713,0.0738,0.0797,0.0824,0.0867,0.0848,0.0895,0.0927,0.0927,0.0986,0.1007,0.1048,0.1112,0.1142,0.1132,0.1239,0.1209,0.1213,0.1217,0.1254,0.1263,0.1271,0.1163,0.1162,0.1162,0,0,0.0746,0.0771,0.082,0.0846,0.0887,0.0903,0.0914,0.0955,0.0969,0.1028,0.1029,0.1068,0.1142,0.1171,0.1195,0.1267,0.1266,0.128,0.1312,0.1348,0.1356,0.1363,0.1389,0.1399,0.1286,0.1286,0.1286,0,0.0768,0.0832,0.0845,0.0891,0.0917,0.0918,0.0967,0.0993,0.1045,0.1064,0.1051,0.1144,0.1171,0.1243,0.126,0.128,0.1294,0.1276,0.1354,0.1361,0.1368,0.1393,0.1403,0.1288,0.1288,0.1287,0.1287,0,0.0858,0.0902,0.0936,0.0986,0.1016,0.1063,0.1084,0.1113,0.1118,0.1135,0.1196,0.1228,0.1277,0.1294,0.13,0.1367,0.1359,0.135,0.1328,0.1378,0.1402,0.1412,0.129,0.1289,0.1289,0.1289,0,0,0.0931,0.0986,0.0998,0.102,0.1064,0.11,0.1147,0.1194,0.1218,0.1254,0.1295,0.1358,0.1349,0.1377,0.1386,0.1418,0.1473,0.1405,0.1406,0.1417,0.155,0.1557,0.1568,0.1472,0.1474,0.1475,0.1546,0,0.0998,0.1082,0.1094,0.1169,0.121,0.121,0.1252,0.1284,0.1301,0.134,0.1359,0.1404,0.1388,0.1405,0.1437,0.146,0.15,0.1454,0.1512,0.1513,0.1503,0.1581,0.1589,0.1655,0.1556,0.1558,0.1559,0,0.1088,0.1125,0.1203,0.1241,0.1259,0.1296,0.134,0.1376,0.1412,0.1423,0.1453,0.1458,0.1508,0.1482,0.1552,0.1521,0.1545,0.1559,0.1562,0.1569,0.154,0.1591,0.1676,0.1686,0.1573,0.1572,0.1571,0,0.1135,0.1204,0.126,0.1279,0.1324,0.135,0.1371,0.1405,0.1432,0.147,0.1488,0.1532,0.1556,0.159,0.1607,0.1586,0.1675,0.1651,0.1687,0.1686,0.1707,0.1705,0.1798,0.172,0.172,0.172,0.1719,0,0.1209,0.1257,0.1281,0.1316,0.137,0.1383,0.1436,0.1456,0.1486,0.1525,0.1528,0.1565,0.1584,0.1624,0.1637,0.1693,0.1704,0.1714,0.1718,0.1715,0.1714,0.1732,0.1728,0.1722,0.1722,0.1721,0.1721,0,0.1271,0.1289,0.135,0.1387,0.1397,0.1436,0.1468,0.1502,0.1519,0.1568,0.158,0.1607,0.1654,0.1673,0.1731,0.174,0.1804,0.1804,0.1792,0.1793,0.1828,0.1825,0.1936,0.1952,0.1863,0.1864,0.1864,0,0.1317,0.1354,0.1395,0.1421,0.1442,0.1483,0.151,0.1525,0.1553,0.1597,0.1626,0.1672,0.171,0.1785,0.181,0.1854,0.1855,0.1891,0.1862,0.1858,0.1857,0.1855,0.1859,0.1897,0.1898,0.1898,0.1899,0,0.1399,0.1406,0.1444,0.1486,0.1518,0.1552,0.1585,0.1606,0.1626,0.1657,0.1705,0.1734,0.1792,0.1839,0.1884,0.1906,0.1906,0.1907,0.1918,0.1917,0.1909,0.1914,0.1808,0.1905,0.1905,0.1904,0.1904,0.1904,0.1456,0.1488,0.1522,0.1565,0.1591,0.1621,0.1655,0.1675,0.1714,0.1762,0.1768,0.1819,0.1854,0.1915,0.1939,0.1979,0.197,0.1986,0.199,0.1994,0.1996,0.1901,0.1987,0.1987,0.1987,0.1987,0.1987,0,0.1538,0.1559,0.1598,0.1644,0.1677,0.1673,0.1709,0.1738,0.1782,0.1815,0.1851,0.1906,0.1951,0.1979,0.2024,0.2051,0.2052,0.2063,0.2061,0.2067,0.2001,0.1988,0.2061,0.2061,0.2061,0.2061,0.2061,0.2061,0.1585,0.164,0.165,0.1719,0.174,0.1789,0.181,0.1838,0.1864,0.1924,0.1961,0.1978,0.2009,0.2057,0.2098,0.2105,0.2122,0.2133,0.214,0.2079,0.2071,0.2064,0.2051,0.2136,0.2137,0.2202,0.2203,0.2203]},{"header":{"parameterUnit":"m.s-1","parameterCategory":1,"la1":30.2991,"la2":30.254,"lo1":-89.0895,"lo2":-89.0444,"dx":0.0017,"dy":0.0017,"nx":28,"ny":28,"refTime":"2022-12-03T09:00:00:Z","depth":0,"parameterNumber":3,"parameterNumberName":"V-component_of_WINDS"},"data":[0,0,0,0,0,0,0,0,0,0,0,0,0,0,0,0,0,0,0,0,0,0,0,0,0,0,0,0,0,0,0,0,0,0,0,0,0,0,0,0,0,0,0,0,0,0,0,0,0,0,0,0,0,0,0,0,0,0,-0.2265,-0.2266,0,-0.241,-0.2412,-0.2413,-0.2516,-0.2516,-0.2517,-0.2518,-0.2669,-0.2673,-0.2676,0,0,0,0,0,0,0,0,0,0,0,0,0,-0.2081,-0.2083,-0.2265,-0.2267,-0.2268,-0.241,-0.2412,-0.2414,-0.2515,-0.2516,-0.2517,-0.2518,-0.2668,-0.2672,-0.2676,0,0,0,0,0,0,0,0,0,0,0,0,0,-0.2187,-0.2084,-0.2264,-0.2336,-0.2344,-0.2409,-0.2412,-0.2414,-0.2515,-0.2516,-0.2518,-0.2519,-0.2667,-0.2672,-0.2677,-0.2683,0,0,-0.2692,-0.2694,0,0,0,0,0,0,0,0,-0.2181,-0.2193,-0.2324,-0.2331,-0.234,-0.2446,-0.2403,-0.2505,-0.2515,-0.245,-0.2518,-0.2519,-0.2594,-0.2605,-0.263,-0.2691,-0.2697,-0.2692,-0.2695,-0.2697,-0.2699,0,0,0,0,0,0,0,-0.2173,-0.2188,-0.2322,-0.2326,-0.2336,-0.2363,-0.2379,-0.2422,-0.2514,-0.2456,-0.2464,-0.2479,-0.2599,-0.2625,-0.2634,-0.2699,-0.2692,-0.2697,-0.27,-0.2702,-0.2777,-0.2776,0,0,0,0,0,0,-0.2154,-0.2181,-0.2318,-0.2327,-0.2262,-0.2365,-0.2383,-0.2411,-0.2514,-0.2531,-0.2478,-0.2484,-0.2616,-0.2628,-0.264,-0.2657,-0.2697,-0.2702,-0.2705,-0.2778,-0.2777,-0.2776,0,0,0,0,0,0,-0.215,-0.2165,-0.2312,-0.2256,-0.2277,-0.2367,-0.2397,-0.2413,-0.2439,-0.2531,-0.2548,-0.2488,-0.2617,-0.2633,-0.2673,-0.2664,-0.2704,-0.2709,-0.2779,-0.2778,-0.2777,-0.269,0,0,0,0,0,0,-0.2144,-0.2163,-0.2165,-0.2255,-0.2279,-0.234,-0.2396,-0.2415,-0.2447,-0.2455,-0.2544,-0.256,-0.262,-0.2665,-0.2678,-0.2672,-0.2713,-0.2781,-0.2779,-0.2777,-0.2694,-0.2686,-0.2679,0,0,0,0,0,-0.2137,-0.2134,-0.2164,-0.218,-0.2283,-0.2339,-0.2353,-0.2421,-0.2446,-0.245,-0.2509,-0.2557,-0.2663,-0.2668,-0.2683,-0.2678,-0.2781,-0.2779,-0.2777,-0.2698,-0.2687,-0.2679,0,0,0,0,0,0,-0.2041,-0.2148,-0.2182,-0.2208,-0.2264,-0.2356,-0.2363,-0.2408,-0.2459,-0.2464,-0.2548,-0.2567,-0.2599,-0.2643,-0.2647,-0.2693,-0.2728,-0.2729,-0.2662,-0.2654,-0.2646,-0.2635,-0.2717,0,0,0,0,0,-0.2023,-0.2058,-0.215,-0.2164,-0.2191,-0.2272,-0.2299,-0.2347,-0.2408,-0.2432,-0.2494,-0.2553,-0.2601,-0.2629,-0.2677,-0.2701,-0.2724,-0.2706,-0.2698,-0.2691,-0.2691,-0.2711,-0.2705,-0.2769,-0.2769,-0.2769,0,0,-0.1986,-0.2048,-0.2065,-0.2147,-0.2196,-0.2232,-0.2291,-0.2326,-0.2355,-0.2438,-0.248,-0.2527,-0.2599,-0.2631,-0.2649,-0.2669,-0.2679,-0.2689,-0.2682,-0.2686,-0.2708,-0.2702,-0.2696,-0.2768,-0.2768,-0.2768,0,0,-0.1937,-0.1987,-0.2006,-0.2054,-0.2127,-0.2182,-0.2186,-0.2273,-0.2308,-0.2351,-0.2415,-0.2451,-0.2529,-0.2579,-0.2614,-0.2588,-0.2635,-0.2601,-0.2561,-0.2579,-0.2574,-0.257,-0.2563,-0.2559,-0.2601,-0.26,-0.26,0,-0.1882,-0.1938,-0.201,-0.2043,-0.2078,-0.2155,-0.2177,-0.222,-0.2305,-0.2329,-0.235,-0.2453,-0.2506,-0.2553,-0.2546,-0.2572,-0.2582,-0.2591,-0.2569,-0.2565,-0.2563,-0.2557,-0.2554,-0.2596,-0.2597,-0.2597,-0.2597,0,-0.1868,-0.1906,-0.1913,-0.1994,-0.203,-0.2056,-0.2135,-0.2163,-0.2209,-0.2262,-0.2307,-0.2374,-0.2438,-0.2453,-0.2497,-0.2507,-0.2518,-0.2552,-0.259,-0.2551,-0.2547,-0.2545,-0.259,-0.2591,-0.2593,-0.2594,0,0,-0.1761,-0.1883,-0.1885,-0.1924,-0.2012,-0.2044,-0.2076,-0.2138,-0.2162,-0.2219,-0.225,-0.2316,-0.235,-0.239,-0.2441,-0.2456,-0.2435,-0.249,-0.2493,-0.2479,-0.2453,-0.2426,-0.2422,-0.2466,-0.2466,-0.2466,-0.2447,0,-0.1727,-0.1787,-0.1854,-0.1891,-0.193,-0.2005,-0.2033,-0.2091,-0.2143,-0.2184,-0.2241,-0.2288,-0.2328,-0.2353,-0.2371,-0.2433,-0.2431,-0.2435,-0.2497,-0.2499,-0.2478,-0.242,-0.2392,-0.2371,-0.2446,-0.2446,-0.2446,0,-0.1695,-0.1749,-0.1789,-0.1877,-0.1896,-0.1919,-0.1984,-0.2022,-0.2091,-0.2128,-0.2173,-0.2229,-0.2269,-0.2301,-0.2359,-0.2361,-0.2391,-0.2425,-0.2427,-0.2436,-0.247,-0.2429,-0.2365,-0.2362,-0.2443,-0.2444,-0.2444,0,-0.1615,-0.1698,-0.1734,-0.1765,-0.1867,-0.1883,-0.1926,-0.1997,-0.2031,-0.2088,-0.2112,-0.2173,-0.2207,-0.2254,-0.2326,-0.2342,-0.2377,-0.2415,-0.2411,-0.2409,-0.2414,-0.2413,-0.2356,-0.2431,-0.2431,-0.2431,-0.2431,0,-0.1571,-0.1593,-0.17,-0.1722,-0.1751,-0.1829,-0.1856,-0.1907,-0.1969,-0.2004,-0.2074,-0.2106,-0.2197,-0.2241,-0.2297,-0.2338,-0.2353,-0.2385,-0.24,-0.2379,-0.2375,-0.2401,-0.2404,-0.2431,-0.2431,-0.2431,-0.2431,0,-0.1486,-0.1558,-0.1603,-0.1697,-0.1721,-0.1738,-0.182,-0.1846,-0.1902,-0.1946,-0.1961,-0.2049,-0.2105,-0.2181,-0.2259,-0.2298,-0.2331,-0.2354,-0.2308,-0.2317,-0.2309,-0.2309,-0.2266,-0.2266,-0.2339,-0.2338,-0.2338,0,-0.1453,-0.1473,-0.1569,-0.1597,-0.1639,-0.1683,-0.1719,-0.1799,-0.1834,-0.1916,-0.1932,-0.1993,-0.2046,-0.2131,-0.2203,-0.2265,-0.2291,-0.2272,-0.23,-0.228,-0.2293,-0.2291,-0.2295,-0.2265,-0.2263,-0.2262,-0.2262,0,-0.1388,-0.1424,-0.1472,-0.1534,-0.1575,-0.1628,-0.1684,-0.1704,-0.1796,-0.1832,-0.1889,-0.193,-0.2011,-0.2072,-0.2143,-0.2191,-0.2242,-0.2252,-0.2255,-0.2234,-0.2207,-0.2224,-0.229,-0.2253,-0.2254,-0.2254,-0.2255,-0.2255,-0.133,-0.1352,-0.1424,-0.1476,-0.1527,-0.1579,-0.1608,-0.1669,-0.1718,-0.179,-0.1834,-0.189,-0.1963,-0.2064,-0.211,-0.2156,-0.2177,-0.218,-0.2181,-0.2181,-0.2175,-0.2199,-0.217,-0.217,-0.217,-0.2171,-0.2171,0,-0.127,-0.132,-0.1368,-0.1445,-0.1487,-0.1532,-0.1597,-0.163,-0.1678,-0.1741,-0.1792,-0.1859,-0.1919,-0.1997,-0.2063,-0.2085,-0.2111,-0.21,-0.21,-0.211,-0.2152,-0.2144,-0.2079,-0.2079,-0.2079,-0.2079,-0.2079,-0.2079,-0.1243,-0.1283,-0.1328,-0.1395,-0.1446,-0.1501,-0.1535,-0.1584,-0.1635,-0.1707,-0.1757,-0.1807,-0.1877,-0.1949,-0.2007,-0.2029,-0.2051,-0.2033,-0.2062,-0.2099,-0.2107,-0.2115,-0.2108,-0.2036,-0.2036,-0.2017,-0.2017,-0.2017]}]]